WA6MEM Weather Reports


Display with metric or nautical units.
time (UTC)temp
F
wind
direction
speed
MPH
gust
MPH
rain 1hr
in
rain 24hr
in
rain mn
in
humidity
%
barometer
mb
20180225231533 60 298 1.0 6.0 0.00 0.00 0.00 35 1019.5
20180225231432 60 288 1.0 6.0 0.00 0.00 0.00 35 1019.5
20180225231345 60 232 1.0 6.0 0.00 0.00 0.00 39 1019.5
20180225231239 60 253 1.0 6.0 0.00 0.00 0.00 29 1019.4
20180225231133 60 252 3.0 6.0 0.00 0.00 0.00 26 1019.4
20180225231046 60 246 5.0 6.0 0.00 0.00 0.00 27 1019.4
20180225230942 61 232 4.0 5.0 0.00 0.00 0.00 28 1019.4
20180225230844 61 246 4.0 5.0 0.00 0.00 0.00 28 1019.4
20180225230739 61 252 1.0 5.0 0.00 0.00 0.00 28 1019.4
20180225230637 61 235 2.0 5.0 0.00 0.00 0.00 30 1019.4
20180225230531 61 232 4.0 5.0 0.00 0.00 0.00 29 1019.4
20180225230444 62 238 3.0 5.0 0.00 0.00 0.00 29 1019.4
20180225230338 62 287 2.0 4.0 0.00 0.00 0.00 28 1019.4
20180225230234 62 298 2.0 4.0 0.00 0.00 0.00 29 1019.4
20180225230135 62 297 1.0 6.0 0.00 0.00 0.00 31 1019.4
20180225230033 62 236 2.0 6.0 0.00 0.00 0.00 29 1019.4
20180225225948 62 310 2.0 6.0 0.00 0.00 0.00 31 1019.4
20180225225841 62 281 2.0 6.0 0.00 0.00 0.00 35 1019.4
20180225225738 62 279 2.0 6.0 0.00 0.00 0.00 38 1019.4
20180225225633 62 232 1.0 6.0 0.00 0.00 0.00 38 1019.4
20180225225547 62 263 1.0 6.0 0.00 0.00 0.00 36 1019.4
20180225225441 62 300 2.0 6.0 0.00 0.00 0.00 32 1019.4
20180225225339 62 259 4.0 6.0 0.00 0.00 0.00 33 1019.4
20180225225232 62 252 2.0 6.0 0.00 0.00 0.00 37 1019.4
20180225225150 62 232 1.0 6.0 0.00 0.00 0.00 36 1019.4
20180225225044 62 224 0.0 6.0 0.00 0.00 0.00 35 1019.4
20180225224938 62 224 0.0 6.0 0.00 0.00 0.00 35 1019.4
20180225224832 62 224 1.0 7.0 0.00 0.00 0.00 38 1019.4
20180225224746 62 192 1.0 7.0 0.00 0.00 0.00 37 1019.4
20180225224642 62 227 1.0 7.0 0.00 0.00 0.00 35 1019.4
20180225224536 62 221 2.0 7.0 0.00 0.00 0.00 31 1019.4
20180225224432 62 313 3.0 7.0 0.00 0.00 0.00 36 1019.4
20180225224345 62 302 1.0 7.0 0.00 0.00 0.00 36 1019.4
20180225224240 62 292 0.0 7.0 0.00 0.00 0.00 40 1019.5
20180225224138 62 223 2.0 7.0 0.00 0.00 0.00 38 1019.5
20180225224032 62 217 4.0 7.0 0.00 0.00 0.00 37 1019.5
20180225223945 62 232 4.0 7.0 0.00 0.00 0.00 36 1019.5
20180225223844 62 246 1.0 4.0 0.00 0.00 0.00 43 1019.5
20180225223742 62 304 1.0 4.0 0.00 0.00 0.00 36 1019.5
20180225223636 62 321 2.0 4.0 0.00 0.00 0.00 35 1019.5
20180225223549 62 344 1.0 4.0 0.00 0.00 0.00 37 1019.5
20180225223444 61 298 1.0 4.0 0.00 0.00 0.00 36 1019.5
20180225223341 62 319 1.0 4.0 0.00 0.00 0.00 36 1019.5
20180225223235 62 323 1.0 4.0 0.00 0.00 0.00 35 1019.5
20180225223132 62 294 1.0 4.0 0.00 0.00 0.00 34 1019.5
20180225223046 62 308 2.0 4.0 0.00 0.00 0.00 41 1019.5
20180225222941 62 294 2.0 4.0 0.00 0.00 0.00 43 1019.5
20180225222838 62 251 1.0 4.0 0.00 0.00 0.00 43 1019.5
20180225222733 62 305 1.0 4.0 0.00 0.00 0.00 39 1019.7
20180225222647 62 316 2.0 4.0 0.00 0.00 0.00 37 1019.7
20180225222540 62 277 2.0 4.0 0.00 0.00 0.00 46 1019.7
20180225222442 62 270 2.0 4.0 0.00 0.00 0.00 46 1019.7
20180225222339 62 288 3.0 4.0 0.00 0.00 0.00 43 1019.7
20180225222233 62 306 0.0 3.0 0.00 0.00 0.00 39 1019.7
20180225222131 61 318 1.0 3.0 0.00 0.00 0.00 37 1019.7
20180225222044 61 270 1.0 3.0 0.00 0.00 0.00 40 1019.7
20180225221938 61 300 2.0 3.0 0.00 0.00 0.00 37 1019.7
20180225221833 61 317 1.0 3.0 0.00 0.00 0.00 40 1019.7
20180225221731 61 290 1.0 3.0 0.00 0.00 0.00 42 1019.7
20180225221645 61 289 1.0 3.0 0.00 0.00 0.00 40 1019.7
20180225221539 61 282 1.0 3.0 0.00 0.00 0.00 43 1019.7
20180225221436 61 265 1.0 3.0 0.00 0.00 0.00 44 1019.7
20180225221332 61 287 1.0 3.0 0.00 0.00 0.00 46 1019.7
20180225221247 61 281 1.0 4.0 0.00 0.00 0.00 46 1019.9
20180225221142 60 280 2.0 4.0 0.00 0.00 0.00 44 1019.9
20180225221040 60 286 1.0 4.0 0.00 0.00 0.00 49 1019.9
20180225220939 60 286 1.0 4.0 0.00 0.00 0.00 49 1019.9
20180225220838 60 291 2.0 4.0 0.00 0.00 0.00 49 1019.9
20180225220732 60 254 1.0 5.0 0.00 0.00 0.00 52 1019.9
20180225220627 60 261 0.0 7.0 0.00 0.00 0.00 53 1019.9
20180225220545 60 261 1.0 7.0 0.00 0.00 0.00 54 1019.9
20180225220439 60 257 2.0 7.0 0.00 0.00 0.00 54 1019.9
20180225220333 59 232 0.0 7.0 0.00 0.00 0.00 56 1019.9
20180225220231 59 246 1.0 7.0 0.00 0.00 0.00 56 1019.9
20180225220145 59 246 2.0 7.0 0.00 0.00 0.00 56 1019.9
20180225220039 59 269 2.0 7.0 0.00 0.00 0.00 54 1019.9
20180225215932 59 238 4.0 7.0 0.00 0.00 0.00 53 1019.9
20180225215850 59 230 5.0 7.0 0.00 0.00 0.00 53 1019.9